owner,sensor,date,latitude,longitude,air_pressure(mBar),qcFlag 
TABS,ioos:station:wmo:42045:1,2007-08-01T00:00:00Z,26.2168,-96.4998,1012.03,11111222 
TABS,ioos:station:wmo:42045:1,2007-08-01T00:30:00Z,26.2168,-96.4998,1009.03,11111222 
TABS,ioos:station:wmo:42045:1,2007-08-01T01:00:00Z,26.2168,-96.4998,1005.73,11111222 
TABS,ioos:station:wmo:42045:1,2007-08-01T01:30:00Z,26.2168,-96.4998,1004.56,11111222 
TABS,ioos:station:wmo:42045:1,2007-08-01T02:00:00Z,26.2168,-96.4998,1004.18,11111222 
TABS,ioos:station:wmo:42045:1,2007-08-01T02:30:00Z,26.2168,-96.4998,1003.91,11111222 
TABS,ioos:station:wmo:42045:1,2007-08-01T03:00:00Z,26.2168,-96.4998,1003.94,11111222 
TABS,ioos:station:wmo:42045:1,2007-08-01T03:30:00Z,26.2168,-96.4998,1003.93,11111222 
TABS,ioos:station:wmo:42045:1,2007-08-01T04:00:00Z,26.2168,-96.4998,1003.75,11111222 
TABS,ioos:station:wmo:42045:1,2007-08-01T04:30:00Z,26.2168,-96.4998,1003.72,11111222 
TABS,ioos:station:wmo:42045:1,2007-08-01T05:00:00Z,26.2168,-96.4998,1003.58,11111222 
TABS,ioos:station:wmo:42045:1,2007-08-01T05:30:00Z,26.2168,-96.4998,1003.46,11111222 
TABS,ioos:station:wmo:42045:1,2007-08-01T06:00:00Z,26.2168,-96.4998,1003.56,11111222 
TABS,ioos:station:wmo:42045:1,2007-08-01T06:30:00Z,26.2168,-96.4998,1003.49,11111222 
TABS,ioos:station:wmo:42045:1,2007-08-01T07:00:00Z,26.2168,-96.4998,1003.51,11111222 
TABS,ioos:station:wmo:42045:1,2007-08-01T07:30:00Z,26.2168,-96.4998,1003.44,11111222 
TABS,ioos:station:wmo:42045:1,2007-08-01T08:00:00Z,26.2168,-96.4998,1003.18,11111222 
TABS,ioos:station:wmo:42045:1,2007-08-01T08:30:00Z,26.2168,-96.4998,1003.17,11111222 
TABS,ioos:station:wmo:42045:1,2007-08-01T09:00:00Z,26.2168,-96.4998,1002.89,11111222 
TABS,ioos:station:wmo:42045:1,2007-08-01T09:30:00Z,26.2168,-96.4998,1002.79,11111222 
TABS,ioos:station:wmo:42045:1,2007-08-01T10:00:00Z,26.2168,-96.4998,1002.76,11111222 
TABS,ioos:station:wmo:42045:1,2007-08-01T10:30:00Z,26.2168,-96.4998,1002.86,11111222 
TABS,ioos:station:wmo:42045:1,2007-08-01T11:00:00Z,26.2168,-96.4998,1002.9,11111222 
TABS,ioos:station:wmo:42045:1,2007-08-01T11:30:00Z,26.2168,-96.4998,1003.05,11111222 
TABS,ioos:station:wmo:42045:1,2007-08-01T12:00:00Z,26.2168,-96.4998,1004.05,11111222 
TABS,ioos:station:wmo:42045:1,2007-08-01T12:30:00Z,26.2168,-96.4998,1007.21,11111222 
TABS,ioos:station:wmo:42045:1,2007-08-01T13:00:00Z,26.2168,-96.4998,1012.33,11111222 
TABS,ioos:station:wmo:42045:1,2007-08-01T13:30:00Z,26.2168,-96.4998,1017.44,11111222 
TABS,ioos:station:wmo:42045:1,2007-08-01T14:00:00Z,26.2168,-96.4998,1023.06,11111222 
TABS,ioos:station:wmo:42045:1,2007-08-01T14:30:00Z,26.2168,-96.4998,1023.6,11111222 
TABS,ioos:station:wmo:42045:1,2007-08-01T15:00:00Z,26.2168,-96.4998,1029.7,11111222 
TABS,ioos:station:wmo:42045:1,2007-08-01T15:30:00Z,26.2168,-96.4998,1030.57,11111222 
TABS,ioos:station:wmo:42045:1,2007-08-01T16:00:00Z,26.2168,-96.4998,1032.93,11111222 
TABS,ioos:station:wmo:42045:1,2007-08-01T16:30:00Z,26.2168,-96.4998,1033.88,11111222 
TABS,ioos:station:wmo:42045:1,2007-08-01T17:00:00Z,26.2168,-96.4998,1035.11,11111222 
TABS,ioos:station:wmo:42045:1,2007-08-01T17:30:00Z,26.2168,-96.4998,1033.05,11111222 
TABS,ioos:station:wmo:42045:1,2007-08-01T18:00:00Z,26.2168,-96.4998,1025.66,11111222 
TABS,ioos:station:wmo:42045:1,2007-08-01T18:30:00Z,26.2168,-96.4998,1018.03,11111222 
TABS,ioos:station:wmo:42045:1,2007-08-01T19:00:00Z,26.2168,-96.4998,1016.31,11111222 
TABS,ioos:station:wmo:42045:1,2007-08-01T19:30:00Z,26.2168,-96.4998,1016.3,11111222 
TABS,ioos:station:wmo:42045:1,2007-08-01T20:00:00Z,26.2168,-96.4998,1017.2,11111222 
TABS,ioos:station:wmo:42045:1,2007-08-01T20:30:00Z,26.2168,-96.4998,1016.85,11111222 
TABS,ioos:station:wmo:42045:1,2007-08-01T21:00:00Z,26.2168,-96.4998,1021.57,11111222 
TABS,ioos:station:wmo:42045:1,2007-08-01T21:30:00Z,26.2168,-96.4998,1023.24,11111222 
TABS,ioos:station:wmo:42045:1,2007-08-01T22:00:00Z,26.2168,-96.4998,1017.32,11111222 
TABS,ioos:station:wmo:42045:1,2007-08-01T22:30:00Z,26.2168,-96.4998,1015.86,11111222 
TABS,ioos:station:wmo:42045:1,2007-08-01T23:00:00Z,26.2168,-96.4998,1014.18,11111222 
TABS,ioos:station:wmo:42045:1,2007-08-01T23:30:00Z,26.2168,-96.4998,1013.74,11111222 
TABS,ioos:station:wmo:42045:1,2007-08-02T00:00:00Z,26.2168,-96.4998,1011.72,11111222 
TABS,ioos:station:wmo:42045:1,2007-08-02T00:30:00Z,26.2168,-96.4998,1009.19,11111222 
TABS,ioos:station:wmo:42045:1,2007-08-02T01:00:00Z,26.2168,-96.4998,1006.61,11111222 
TABS,ioos:station:wmo:42045:1,2007-08-02T01:30:00Z,26.2168,-96.4998,1005.35,11111222 
TABS,ioos:station:wmo:42045:1,2007-08-02T02:00:00Z,26.2168,-96.4998,1005.37,11111222 
TABS,ioos:station:wmo:42045:1,2007-08-02T02:30:00Z,26.2168,-96.4998,1004.85,11111222 
TABS,ioos:station:wmo:42045:1,2007-08-02T03:00:00Z,26.2168,-96.4998,1004.35,11111222 
TABS,ioos:station:wmo:42045:1,2007-08-02T03:30:00Z,26.2168,-96.4998,1004.31,11111222 
TABS,ioos:station:wmo:42045:1,2007-08-02T04:00:00Z,26.2168,-96.4998,1004.29,11111222 
TABS,ioos:station:wmo:42045:1,2007-08-02T04:30:00Z,26.2168,-96.4998,1004.0,11111222 
TABS,ioos:station:wmo:42045:1,2007-08-02T05:00:00Z,26.2168,-96.4998,1004.15,11111222 
TABS,ioos:station:wmo:42045:1,2007-08-02T05:30:00Z,26.2168,-96.4998,1004.2,11111222 
TABS,ioos:station:wmo:42045:1,2007-08-02T06:00:00Z,26.2168,-96.4998,1004.27,11111222 
TABS,ioos:station:wmo:42045:1,2007-08-02T06:30:00Z,26.2168,-96.4998,1004.05,11111222 
TABS,ioos:station:wmo:42045:1,2007-08-02T07:00:00Z,26.2168,-96.4998,1003.7,11111222 
TABS,ioos:station:wmo:42045:1,2007-08-02T07:30:00Z,26.2168,-96.4998,1003.63,11111222 
TABS,ioos:station:wmo:42045:1,2007-08-02T08:00:00Z,26.2168,-96.4998,1003.24,11111222 
TABS,ioos:station:wmo:42045:1,2007-08-02T08:30:00Z,26.2168,-96.4998,1002.94,11111222 
TABS,ioos:station:wmo:42045:1,2007-08-02T09:00:00Z,26.2168,-96.4998,1002.91,11111222 
TABS,ioos:station:wmo:42045:1,2007-08-02T09:30:00Z,26.2168,-96.4998,1002.69,11111222 
TABS,ioos:station:wmo:42045:1,2007-08-02T10:00:00Z,26.2168,-96.4998,1002.55,11111222 
TABS,ioos:station:wmo:42045:1,2007-08-02T10:30:00Z,26.2168,-96.4998,1002.25,11111222 
TABS,ioos:station:wmo:42045:1,2007-08-02T11:00:00Z,26.2168,-96.4998,1002.3,11111222 
TABS,ioos:station:wmo:42045:1,2007-08-02T11:30:00Z,26.2168,-96.4998,1002.32,11111222 
TABS,ioos:station:wmo:42045:1,2007-08-02T12:00:00Z,26.2168,-96.4998,1003.04,11111222 
TABS,ioos:station:wmo:42045:1,2007-08-02T12:30:00Z,26.2168,-96.4998,1005.75,11111222 
TABS,ioos:station:wmo:42045:1,2007-08-02T13:00:00Z,26.2168,-96.4998,1014.08,11111222 
TABS,ioos:station:wmo:42045:1,2007-08-02T13:30:00Z,26.2168,-96.4998,1017.41,11111222 
TABS,ioos:station:wmo:42045:1,2007-08-02T14:00:00Z,26.2168,-96.4998,1018.17,11111222 
TABS,ioos:station:wmo:42045:1,2007-08-02T14:30:00Z,26.2168,-96.4998,1024.66,11111222 
TABS,ioos:station:wmo:42045:1,2007-08-02T15:00:00Z,26.2168,-96.4998,1026.93,11111222 
TABS,ioos:station:wmo:42045:1,2007-08-02T15:30:00Z,26.2168,-96.4998,1026.44,11111222 
TABS,ioos:station:wmo:42045:1,2007-08-02T16:00:00Z,26.2168,-96.4998,1025.76,11111222 
TABS,ioos:station:wmo:42045:1,2007-08-02T16:30:00Z,26.2168,-96.4998,1032.15,11111222 
TABS,ioos:station:wmo:42045:1,2007-08-02T17:00:00Z,26.2168,-96.4998,1031.39,11111222 
TABS,ioos:station:wmo:42045:1,2007-08-02T17:30:00Z,26.2168,-96.4998,1030.35,11111222 
TABS,ioos:station:wmo:42045:1,2007-08-02T18:00:00Z,26.2168,-96.4998,1023.53,11111222 
TABS,ioos:station:wmo:42045:1,2007-08-02T18:30:00Z,26.2168,-96.4998,1016.63,11111222 
TABS,ioos:station:wmo:42045:1,2007-08-02T19:00:00Z,26.2168,-96.4998,1014.17,11111222 
TABS,ioos:station:wmo:42045:1,2007-08-02T19:30:00Z,26.2168,-96.4998,1014.23,11111222 
TABS,ioos:station:wmo:42045:1,2007-08-02T20:00:00Z,26.2168,-96.4998,1012.4,11111222 
TABS,ioos:station:wmo:42045:1,2007-08-02T20:30:00Z,26.2168,-96.4998,1013.81,11111222 
TABS,ioos:station:wmo:42045:1,2007-08-02T21:00:00Z,26.2168,-96.4998,1015.61,11111222 
TABS,ioos:station:wmo:42045:1,2007-08-02T21:30:00Z,26.2168,-96.4998,1016.44,11111222 
TABS,ioos:station:wmo:42045:1,2007-08-02T22:00:00Z,26.2168,-96.4998,1016.51,11111222 
TABS,ioos:station:wmo:42045:1,2007-08-02T22:30:00Z,26.2168,-96.4998,1016.22,11111222 
TABS,ioos:station:wmo:42045:1,2007-08-02T23:00:00Z,26.2168,-96.4998,1015.56,11111222 
TABS,ioos:station:wmo:42045:1,2007-08-02T23:30:00Z,26.2168,-96.4998,1013.13,11111222 
TABS,ioos:station:wmo:42045:1,2007-08-03T00:00:00Z,26.2168,-96.4998,1013.18,11111222 
TABS,ioos:station:wmo:42045:1,2007-08-03T00:30:00Z,26.2168,-96.4998,1010.07,11111222 
TABS,ioos:station:wmo:42045:1,2007-08-03T01:00:00Z,26.2168,-96.4998,1007.34,11111222 
TABS,ioos:station:wmo:42045:1,2007-08-03T01:30:00Z,26.2168,-96.4998,1006.38,11111222 
TABS,ioos:station:wmo:42045:1,2007-08-03T02:00:00Z,26.2168,-96.4998,1006.04,11111222 
TABS,ioos:station:wmo:42045:1,2007-08-03T02:30:00Z,26.2168,-96.4998,1006.01,11111222 
TABS,ioos:station:wmo:42045:1,2007-08-03T03:00:00Z,26.2168,-96.4998,1005.88,11111222 
TABS,ioos:station:wmo:42045:1,2007-08-03T03:30:00Z,26.2168,-96.4998,1006.48,11111222 
TABS,ioos:station:wmo:42045:1,2007-08-03T04:00:00Z,26.2168,-96.4998,1006.21,11111222 
TABS,ioos:station:wmo:42045:1,2007-08-03T04:30:00Z,26.2168,-96.4998,1005.99,11111222 
TABS,ioos:station:wmo:42045:1,2007-08-03T05:00:00Z,26.2168,-96.4998,1005.78,11111222 
TABS,ioos:station:wmo:42045:1,2007-08-03T05:30:00Z,26.2168,-96.4998,1005.52,11111222 
TABS,ioos:station:wmo:42045:1,2007-08-03T06:00:00Z,26.2168,-96.4998,1005.05,11111222 
TABS,ioos:station:wmo:42045:1,2007-08-03T06:30:00Z,26.2168,-96.4998,1004.6,11111222 
TABS,ioos:station:wmo:42045:1,2007-08-03T07:00:00Z,26.2168,-96.4998,1004.22,11111222 
TABS,ioos:station:wmo:42045:1,2007-08-03T07:30:00Z,26.2168,-96.4998,1004.07,11111222 
TABS,ioos:station:wmo:42045:1,2007-08-03T08:00:00Z,26.2168,-96.4998,1003.89,11111222 
TABS,ioos:station:wmo:42045:1,2007-08-03T08:30:00Z,26.2168,-96.4998,1003.71,11111222 
TABS,ioos:station:wmo:42045:1,2007-08-03T09:00:00Z,26.2168,-96.4998,1003.5,11111222 
TABS,ioos:station:wmo:42045:1,2007-08-03T09:30:00Z,26.2168,-96.4998,1003.28,11111222 
TABS,ioos:station:wmo:42045:1,2007-08-03T10:00:00Z,26.2168,-96.4998,1003.12,11111222 
TABS,ioos:station:wmo:42045:1,2007-08-03T10:30:00Z,26.2168,-96.4998,1003.0,11111222 
TABS,ioos:station:wmo:42045:1,2007-08-03T11:00:00Z,26.2168,-96.4998,1002.75,11111222 
TABS,ioos:station:wmo:42045:1,2007-08-03T11:30:00Z,26.2168,-96.4998,1002.5,11111222 
TABS,ioos:station:wmo:42045:1,2007-08-03T12:00:00Z,26.2168,-96.4998,1003.19,11111222 
TABS,ioos:station:wmo:42045:1,2007-08-03T12:30:00Z,26.2168,-96.4998,1004.13,11111222 
TABS,ioos:station:wmo:42045:1,2007-08-03T13:00:00Z,26.2168,-96.4998,1005.79,11111222 
TABS,ioos:station:wmo:42045:1,2007-08-03T13:30:00Z,26.2168,-96.4998,1007.6,11111222 
TABS,ioos:station:wmo:42045:1,2007-08-03T14:00:00Z,26.2168,-96.4998,1012.87,11111222 
TABS,ioos:station:wmo:42045:1,2007-08-03T14:30:00Z,26.2168,-96.4998,1023.95,11111222 
TABS,ioos:station:wmo:42045:1,2007-08-03T15:00:00Z,26.2168,-96.4998,1031.82,11111222 
TABS,ioos:station:wmo:42045:1,2007-08-03T15:30:00Z,26.2168,-96.4998,1035.16,11111222 
TABS,ioos:station:wmo:42045:1,2007-08-03T16:00:00Z,26.2168,-96.4998,1036.09,11111222 
TABS,ioos:station:wmo:42045:1,2007-08-03T16:30:00Z,26.2168,-96.4998,1035.67,11111222 
TABS,ioos:station:wmo:42045:1,2007-08-03T17:00:00Z,26.2168,-96.4998,1033.89,11111222 
TABS,ioos:station:wmo:42045:1,2007-08-03T17:30:00Z,26.2168,-96.4998,1031.74,11111222 
TABS,ioos:station:wmo:42045:1,2007-08-03T18:00:00Z,26.2168,-96.4998,1025.92,11111222 
TABS,ioos:station:wmo:42045:1,2007-08-03T18:30:00Z,26.2168,-96.4998,1019.06,11111222 
TABS,ioos:station:wmo:42045:1,2007-08-03T19:00:00Z,26.2168,-96.4998,1015.46,11111222 
TABS,ioos:station:wmo:42045:1,2007-08-03T19:30:00Z,26.2168,-96.4998,1014.22,11111222 
TABS,ioos:station:wmo:42045:1,2007-08-03T20:00:00Z,26.2168,-96.4998,1016.7,11111222 
TABS,ioos:station:wmo:42045:1,2007-08-03T20:30:00Z,26.2168,-96.4998,1017.95,11111222 
TABS,ioos:station:wmo:42045:1,2007-08-03T21:00:00Z,26.2168,-96.4998,1016.98,11111222 
TABS,ioos:station:wmo:42045:1,2007-08-03T21:30:00Z,26.2168,-96.4998,1017.77,11111222 
TABS,ioos:station:wmo:42045:1,2007-08-03T22:00:00Z,26.2168,-96.4998,1015.91,11111222 
TABS,ioos:station:wmo:42045:1,2007-08-03T22:30:00Z,26.2168,-96.4998,1014.08,11111222 
TABS,ioos:station:wmo:42045:1,2007-08-03T23:00:00Z,26.2168,-96.4998,1012.14,11111222 
TABS,ioos:station:wmo:42045:1,2007-08-03T23:30:00Z,26.2168,-96.4998,1011.59,11111222 
TABS,ioos:station:wmo:42045:1,2007-08-04T00:00:00Z,26.2168,-96.4998,1010.7,11111222 
TABS,ioos:station:wmo:42045:1,2007-08-04T00:30:00Z,26.2168,-96.4998,1003.66,11111222 
TABS,ioos:station:wmo:42045:1,2007-08-04T01:00:00Z,26.2168,-96.4998,1000.89,11111222 
TABS,ioos:station:wmo:42045:1,2007-08-04T01:30:00Z,26.2168,-96.4998,999.31,11111222 
TABS,ioos:station:wmo:42045:1,2007-08-04T02:00:00Z,26.2168,-96.4998,1001.88,11111222 
TABS,ioos:station:wmo:42045:1,2007-08-04T02:30:00Z,26.2168,-96.4998,1002.76,11111222 
TABS,ioos:station:wmo:42045:1,2007-08-04T03:00:00Z,26.2168,-96.4998,1002.96,11111222 
TABS,ioos:station:wmo:42045:1,2007-08-04T03:30:00Z,26.2168,-96.4998,1003.26,11111222 
TABS,ioos:station:wmo:42045:1,2007-08-04T04:00:00Z,26.2168,-96.4998,1003.85,11111222 
TABS,ioos:station:wmo:42045:1,2007-08-04T04:30:00Z,26.2168,-96.4998,1004.91,11111222 
TABS,ioos:station:wmo:42045:1,2007-08-04T05:00:00Z,26.2168,-96.4998,1005.05,11111222 
TABS,ioos:station:wmo:42045:1,2007-08-04T05:30:00Z,26.2168,-96.4998,1004.77,11111222 
TABS,ioos:station:wmo:42045:1,2007-08-04T06:00:00Z,26.2168,-96.4998,1004.84,11111222 
TABS,ioos:station:wmo:42045:1,2007-08-04T06:30:00Z,26.2168,-96.4998,1005.0,11111222 
TABS,ioos:station:wmo:42045:1,2007-08-04T07:00:00Z,26.2168,-96.4998,1005.83,11111222 
TABS,ioos:station:wmo:42045:1,2007-08-04T07:30:00Z,26.2168,-96.4998,1006.43,11111222 
TABS,ioos:station:wmo:42045:1,2007-08-04T08:00:00Z,26.2168,-96.4998,1006.68,11111222 
TABS,ioos:station:wmo:42045:1,2007-08-04T08:30:00Z,26.2168,-96.4998,1006.57,11111222 
TABS,ioos:station:wmo:42045:1,2007-08-04T09:00:00Z,26.2168,-96.4998,1006.47,11111222 
TABS,ioos:station:wmo:42045:1,2007-08-04T09:30:00Z,26.2168,-96.4998,1007.21,11111222 
TABS,ioos:station:wmo:42045:1,2007-08-04T10:00:00Z,26.2168,-96.4998,1007.26,11111222 
TABS,ioos:station:wmo:42045:1,2007-08-04T10:30:00Z,26.2168,-96.4998,1007.45,11111222 
TABS,ioos:station:wmo:42045:1,2007-08-04T11:00:00Z,26.2168,-96.4998,1007.02,11111222 
TABS,ioos:station:wmo:42045:1,2007-08-04T11:30:00Z,26.2168,-96.4998,1006.59,11111222 
TABS,ioos:station:wmo:42045:1,2007-08-04T12:00:00Z,26.2168,-96.4998,1007.29,11111222 
TABS,ioos:station:wmo:42045:1,2007-08-04T12:30:00Z,26.2168,-96.4998,1010.71,11111222 
TABS,ioos:station:wmo:42045:1,2007-08-04T13:00:00Z,26.2168,-96.4998,1016.51,11111222 
TABS,ioos:station:wmo:42045:1,2007-08-04T13:30:00Z,26.2168,-96.4998,1026.4,11111222 
TABS,ioos:station:wmo:42045:1,2007-08-04T14:00:00Z,26.2168,-96.4998,1030.42,11111222 
TABS,ioos:station:wmo:42045:1,2007-08-04T14:30:00Z,26.2168,-96.4998,1030.61,11111222 
TABS,ioos:station:wmo:42045:1,2007-08-04T15:00:00Z,26.2168,-96.4998,1034.13,11111222 
TABS,ioos:station:wmo:42045:1,2007-08-04T15:30:00Z,26.2168,-96.4998,1037.69,11111222 
TABS,ioos:station:wmo:42045:1,2007-08-04T16:00:00Z,26.2168,-96.4998,1036.31,11111222 
TABS,ioos:station:wmo:42045:1,2007-08-04T16:30:00Z,26.2168,-96.4998,1034.17,11111222 
TABS,ioos:station:wmo:42045:1,2007-08-04T17:00:00Z,26.2168,-96.4998,1033.61,11111222 
TABS,ioos:station:wmo:42045:1,2007-08-04T17:30:00Z,26.2168,-96.4998,1029.02,11111222 
TABS,ioos:station:wmo:42045:1,2007-08-04T18:00:00Z,26.2168,-96.4998,1021.51,11111222 
TABS,ioos:station:wmo:42045:1,2007-08-04T18:30:00Z,26.2168,-96.4998,1017.91,11111222 
TABS,ioos:station:wmo:42045:1,2007-08-04T19:00:00Z,26.2168,-96.4998,1008.56,11111222 
TABS,ioos:station:wmo:42045:1,2007-08-04T19:30:00Z,26.2168,-96.4998,1012.88,11111222 
TABS,ioos:station:wmo:42045:1,2007-08-04T20:00:00Z,26.2168,-96.4998,1013.67,11111222 
TABS,ioos:station:wmo:42045:1,2007-08-04T20:30:00Z,26.2168,-96.4998,1013.47,11111222 
TABS,ioos:station:wmo:42045:1,2007-08-04T21:00:00Z,26.2168,-96.4998,1012.69,11111222 
TABS,ioos:station:wmo:42045:1,2007-08-04T21:30:00Z,26.2168,-96.4998,1015.76,11111222 
TABS,ioos:station:wmo:42045:1,2007-08-04T22:00:00Z,26.2168,-96.4998,1018.01,11111222 
TABS,ioos:station:wmo:42045:1,2007-08-04T22:30:00Z,26.2168,-96.4998,1017.22,11111222 
TABS,ioos:station:wmo:42045:1,2007-08-04T23:00:00Z,26.2168,-96.4998,1011.46,11111222 
TABS,ioos:station:wmo:42045:1,2007-08-04T23:30:00Z,26.2168,-96.4998,1011.94,11111222 
TABS,ioos:station:wmo:42045:1,2007-08-05T00:00:00Z,26.2168,-96.4998,1007.01,11111222 
TABS,ioos:station:wmo:42045:1,2007-08-05T00:30:00Z,26.2168,-96.4998,1004.29,11111222 
TABS,ioos:station:wmo:42045:1,2007-08-05T01:00:00Z,26.2168,-96.4998,1003.21,11111222 
TABS,ioos:station:wmo:42045:1,2007-08-05T01:30:00Z,26.2168,-96.4998,1003.59,11111222 
TABS,ioos:station:wmo:42045:1,2007-08-05T02:00:00Z,26.2168,-96.4998,1003.96,11111222 
TABS,ioos:station:wmo:42045:1,2007-08-05T02:30:00Z,26.2168,-96.4998,1004.03,11111222 
TABS,ioos:station:wmo:42045:1,2007-08-05T03:00:00Z,26.2168,-96.4998,1003.81,11111222 
TABS,ioos:station:wmo:42045:1,2007-08-05T03:30:00Z,26.2168,-96.4998,1003.93,11111222 
TABS,ioos:station:wmo:42045:1,2007-08-05T04:00:00Z,26.2168,-96.4998,1004.31,11111222 
TABS,ioos:station:wmo:42045:1,2007-08-05T04:30:00Z,26.2168,-96.4998,1005.27,11111222 
TABS,ioos:station:wmo:42045:1,2007-08-05T05:00:00Z,26.2168,-96.4998,1005.68,11111222 
TABS,ioos:station:wmo:42045:1,2007-08-05T05:30:00Z,26.2168,-96.4998,1005.89,11111222 
TABS,ioos:station:wmo:42045:1,2007-08-05T06:00:00Z,26.2168,-96.4998,1006.21,11111222 
TABS,ioos:station:wmo:42045:1,2007-08-05T06:30:00Z,26.2168,-96.4998,1006.69,11111222 
TABS,ioos:station:wmo:42045:1,2007-08-05T07:00:00Z,26.2168,-96.4998,1006.39,11111222 
TABS,ioos:station:wmo:42045:1,2007-08-05T07:30:00Z,26.2168,-96.4998,1006.0,11111222 
TABS,ioos:station:wmo:42045:1,2007-08-05T08:00:00Z,26.2168,-96.4998,1006.22,11111222 
TABS,ioos:station:wmo:42045:1,2007-08-05T08:30:00Z,26.2168,-96.4998,1006.19,11111222 
TABS,ioos:station:wmo:42045:1,2007-08-05T09:00:00Z,26.2168,-96.4998,1006.37,11111222 
TABS,ioos:station:wmo:42045:1,2007-08-05T09:30:00Z,26.2168,-96.4998,1006.49,11111222 
TABS,ioos:station:wmo:42045:1,2007-08-05T10:00:00Z,26.2168,-96.4998,1006.53,11111222 
TABS,ioos:station:wmo:42045:1,2007-08-05T10:30:00Z,26.2168,-96.4998,1006.51,11111222 
TABS,ioos:station:wmo:42045:1,2007-08-05T11:00:00Z,26.2168,-96.4998,1006.44,11111222 
TABS,ioos:station:wmo:42045:1,2007-08-05T11:30:00Z,26.2168,-96.4998,1006.74,11111222 
TABS,ioos:station:wmo:42045:1,2007-08-05T12:00:00Z,26.2168,-96.4998,1007.7,11111222 
TABS,ioos:station:wmo:42045:1,2007-08-05T12:30:00Z,26.2168,-96.4998,1012.05,11111222 
TABS,ioos:station:wmo:42045:1,2007-08-05T13:00:00Z,26.2168,-96.4998,1011.74,11111222 
TABS,ioos:station:wmo:42045:1,2007-08-05T13:30:00Z,26.2168,-96.4998,1023.01,11111222 
TABS,ioos:station:wmo:42045:1,2007-08-05T14:00:00Z,26.2168,-96.4998,1028.75,11111222 
TABS,ioos:station:wmo:42045:1,2007-08-05T14:30:00Z,26.2168,-96.4998,1031.13,11111222 
TABS,ioos:station:wmo:42045:1,2007-08-05T15:00:00Z,26.2168,-96.4998,1031.79,11111222 
TABS,ioos:station:wmo:42045:1,2007-08-05T15:30:00Z,26.2168,-96.4998,1030.61,11111222 
TABS,ioos:station:wmo:42045:1,2007-08-05T16:00:00Z,26.2168,-96.4998,1023.38,11111222 
TABS,ioos:station:wmo:42045:1,2007-08-05T16:30:00Z,26.2168,-96.4998,1029.29,11111222 
TABS,ioos:station:wmo:42045:1,2007-08-05T17:00:00Z,26.2168,-96.4998,1028.64,11111222 
TABS,ioos:station:wmo:42045:1,2007-08-05T17:30:00Z,26.2168,-96.4998,1026.57,11111222 
TABS,ioos:station:wmo:42045:1,2007-08-05T18:00:00Z,26.2168,-96.4998,1024.67,11111222 
TABS,ioos:station:wmo:42045:1,2007-08-05T18:30:00Z,26.2168,-96.4998,1021.4,11111222 
TABS,ioos:station:wmo:42045:1,2007-08-05T19:00:00Z,26.2168,-96.4998,1018.35,11111222 
TABS,ioos:station:wmo:42045:1,2007-08-05T19:30:00Z,26.2168,-96.4998,1018.0,11111222 
TABS,ioos:station:wmo:42045:1,2007-08-05T20:00:00Z,26.2168,-96.4998,1020.98,11111222 
TABS,ioos:station:wmo:42045:1,2007-08-05T20:30:00Z,26.2168,-96.4998,1023.73,11111222 
TABS,ioos:station:wmo:42045:1,2007-08-05T21:00:00Z,26.2168,-96.4998,1026.58,11111222 
TABS,ioos:station:wmo:42045:1,2007-08-05T21:30:00Z,26.2168,-96.4998,1027.27,11111222 
TABS,ioos:station:wmo:42045:1,2007-08-05T22:00:00Z,26.2168,-96.4998,1026.4,11111222 
TABS,ioos:station:wmo:42045:1,2007-08-05T22:30:00Z,26.2168,-96.4998,1024.3,11111222 
TABS,ioos:station:wmo:42045:1,2007-08-05T23:00:00Z,26.2168,-96.4998,1023.87,11111222 
TABS,ioos:station:wmo:42045:1,2007-08-05T23:30:00Z,26.2168,-96.4998,1023.14,11111222 
TABS,ioos:station:wmo:42045:1,2007-08-06T00:00:00Z,26.2168,-96.4998,1020.82,11111222 
TABS,ioos:station:wmo:42045:1,2007-08-06T00:30:00Z,26.2168,-96.4998,1014.3,11111222 
TABS,ioos:station:wmo:42045:1,2007-08-06T01:00:00Z,26.2168,-96.4998,1008.57,11111222 
TABS,ioos:station:wmo:42045:1,2007-08-06T01:30:00Z,26.2168,-96.4998,1007.15,11111222 
TABS,ioos:station:wmo:42045:1,2007-08-06T02:00:00Z,26.2168,-96.4998,1006.86,11111222 
TABS,ioos:station:wmo:42045:1,2007-08-06T02:30:00Z,26.2168,-96.4998,1006.91,11111222 
TABS,ioos:station:wmo:42045:1,2007-08-06T03:00:00Z,26.2168,-96.4998,1006.94,11111222 
TABS,ioos:station:wmo:42045:1,2007-08-06T03:30:00Z,26.2168,-96.4998,1006.93,11111222 
TABS,ioos:station:wmo:42045:1,2007-08-06T04:00:00Z,26.2168,-96.4998,1007.14,11111222 
TABS,ioos:station:wmo:42045:1,2007-08-06T04:30:00Z,26.2168,-96.4998,1007.4,11111222 
TABS,ioos:station:wmo:42045:1,2007-08-06T05:00:00Z,26.2168,-96.4998,1007.6,11111222 
TABS,ioos:station:wmo:42045:1,2007-08-06T05:30:00Z,26.2168,-96.4998,1007.44,11111222 
TABS,ioos:station:wmo:42045:1,2007-08-06T06:00:00Z,26.2168,-96.4998,1007.36,11111222 
TABS,ioos:station:wmo:42045:1,2007-08-06T06:30:00Z,26.2168,-96.4998,1007.71,11111222 
TABS,ioos:station:wmo:42045:1,2007-08-06T07:00:00Z,26.2168,-96.4998,1007.45,11111222 
TABS,ioos:station:wmo:42045:1,2007-08-06T07:30:00Z,26.2168,-96.4998,1007.29,11111222 
TABS,ioos:station:wmo:42045:1,2007-08-06T08:00:00Z,26.2168,-96.4998,1006.98,11111222 
TABS,ioos:station:wmo:42045:1,2007-08-06T08:30:00Z,26.2168,-96.4998,1006.84,11111222 
TABS,ioos:station:wmo:42045:1,2007-08-06T09:00:00Z,26.2168,-96.4998,1007.04,11111222 
TABS,ioos:station:wmo:42045:1,2007-08-06T09:30:00Z,26.2168,-96.4998,1006.86,11111222 
TABS,ioos:station:wmo:42045:1,2007-08-06T10:00:00Z,26.2168,-96.4998,1007.33,11111222 
TABS,ioos:station:wmo:42045:1,2007-08-06T10:30:00Z,26.2168,-96.4998,1007.17,11111222 
TABS,ioos:station:wmo:42045:1,2007-08-06T11:00:00Z,26.2168,-96.4998,1007.1,11111222 
TABS,ioos:station:wmo:42045:1,2007-08-06T11:30:00Z,26.2168,-96.4998,1007.03,11111222 
TABS,ioos:station:wmo:42045:1,2007-08-06T12:00:00Z,26.2168,-96.4998,1007.8,11111222 
TABS,ioos:station:wmo:42045:1,2007-08-06T12:30:00Z,26.2168,-96.4998,1008.7,11111222 
TABS,ioos:station:wmo:42045:1,2007-08-06T13:00:00Z,26.2168,-96.4998,1014.36,11111222 
TABS,ioos:station:wmo:42045:1,2007-08-06T13:30:00Z,26.2168,-96.4998,1024.48,11111222 
TABS,ioos:station:wmo:42045:1,2007-08-06T14:00:00Z,26.2168,-96.4998,1029.19,11111222 
TABS,ioos:station:wmo:42045:1,2007-08-06T14:30:00Z,26.2168,-96.4998,1031.77,11111222 
TABS,ioos:station:wmo:42045:1,2007-08-06T15:00:00Z,26.2168,-96.4998,1034.52,11111222 
TABS,ioos:station:wmo:42045:1,2007-08-06T15:30:00Z,26.2168,-96.4998,1036.1,11111222 
TABS,ioos:station:wmo:42045:1,2007-08-06T16:00:00Z,26.2168,-96.4998,1034.73,11111222 
TABS,ioos:station:wmo:42045:1,2007-08-06T16:30:00Z,26.2168,-96.4998,1034.86,11111222 
TABS,ioos:station:wmo:42045:1,2007-08-06T17:00:00Z,26.2168,-96.4998,1032.38,11111222 
TABS,ioos:station:wmo:42045:1,2007-08-06T17:30:00Z,26.2168,-96.4998,1031.28,11111222 
TABS,ioos:station:wmo:42045:1,2007-08-06T18:00:00Z,26.2168,-96.4998,1024.79,11111222 
TABS,ioos:station:wmo:42045:1,2007-08-06T18:30:00Z,26.2168,-96.4998,1020.05,11111222 